Year,Month,Day,Hour,Minute,Value (Times are PST for temperature in C)
2018,09,19,00,00,8.30
2018,09,19,00,01,8.30
2018,09,19,00,02,8.30
2018,09,19,00,03,8.30
2018,09,19,00,04,8.30
2018,09,19,00,05,8.30
2018,09,19,00,06,8.30
2018,09,19,00,07,8.30
2018,09,19,00,08,8.30
2018,09,19,00,09,8.30
2018,09,19,00,10,8.30
2018,09,19,00,11,8.30
2018,09,19,00,12,8.30
2018,09,19,00,13,8.30
2018,09,19,00,14,8.30
2018,09,19,00,15,8.20
2018,09,19,00,16,8.20
2018,09,19,00,17,8.20
2018,09,19,00,18,8.20
2018,09,19,00,19,8.20
2018,09,19,00,20,8.20
2018,09,19,00,21,8.20
2018,09,19,00,22,8.20
2018,09,19,00,23,8.10
2018,09,19,00,24,8.10
2018,09,19,00,25,8.10
2018,09,19,00,26,8.10
2018,09,19,00,27,8.10
2018,09,19,00,28,8.10
2018,09,19,00,29,8.10
2018,09,19,00,30,8.10
2018,09,19,00,31,8.10
2018,09,19,00,32,8.10
2018,09,19,00,33,8.10
2018,09,19,00,34,8.10
2018,09,19,00,35,8.10
2018,09,19,00,36,8.00
2018,09,19,00,37,8.00
2018,09,19,00,38,8.00
2018,09,19,00,39,8.00
2018,09,19,00,40,8.00
2018,09,19,00,41,8.00
2018,09,19,00,42,8.00
2018,09,19,00,43,7.90
2018,09,19,00,44,7.90
2018,09,19,00,45,7.90
2018,09,19,00,46,7.90
2018,09,19,00,47,7.90
2018,09,19,00,48,7.90
2018,09,19,00,49,7.90
2018,09,19,00,50,7.90
2018,09,19,00,51,7.90
2018,09,19,00,52,7.80
2018,09,19,00,53,7.80
2018,09,19,00,54,7.80
2018,09,19,00,55,7.80
2018,09,19,00,56,7.80
2018,09,19,00,57,7.80
2018,09,19,00,58,7.80
2018,09,19,00,59,7.80
2018,09,19,01,00,7.80
2018,09,19,01,01,7.80
2018,09,19,01,02,7.80
2018,09,19,01,03,7.80
2018,09,19,01,04,7.80
2018,09,19,01,05,7.80
2018,09,19,01,06,7.70
2018,09,19,01,07,7.80
2018,09,19,01,08,7.70
2018,09,19,01,09,7.70
2018,09,19,01,10,7.70
2018,09,19,01,11,7.70
2018,09,19,01,12,7.70
2018,09,19,01,13,7.70
2018,09,19,01,14,7.70
2018,09,19,01,15,7.70
2018,09,19,01,16,7.70
2018,09,19,01,17,7.70
2018,09,19,01,18,7.70
2018,09,19,01,19,7.70
2018,09,19,01,20,7.70
2018,09,19,01,21,7.70
2018,09,19,01,22,7.70
2018,09,19,01,23,7.70
2018,09,19,01,24,7.70
2018,09,19,01,25,7.70
2018,09,19,01,26,7.80
2018,09,19,01,27,7.70
2018,09,19,01,28,7.80
2018,09,19,01,29,7.80
2018,09,19,01,30,7.80
2018,09,19,01,31,7.80
2018,09,19,01,32,7.80
2018,09,19,01,33,7.80
2018,09,19,01,34,7.80
2018,09,19,01,35,7.80
2018,09,19,01,36,7.70
2018,09,19,01,37,7.70
2018,09,19,01,38,7.70
2018,09,19,01,39,7.70
2018,09,19,01,40,7.70
2018,09,19,01,41,7.70
2018,09,19,01,42,7.70
2018,09,19,01,43,7.70
2018,09,19,01,44,7.70
2018,09,19,01,45,7.70
2018,09,19,01,46,7.70
2018,09,19,01,47,7.70
2018,09,19,01,48,7.60
2018,09,19,01,49,7.60
2018,09,19,01,50,7.60
2018,09,19,01,51,7.60
2018,09,19,01,52,7.60
2018,09,19,01,53,7.60
2018,09,19,01,54,7.60
2018,09,19,01,55,7.60
2018,09,19,01,56,7.60
2018,09,19,01,57,7.50
2018,09,19,01,58,7.50
2018,09,19,01,59,7.50
2018,09,19,02,00,7.50
2018,09,19,02,01,7.50
2018,09,19,02,02,7.50
2018,09,19,02,03,7.50
2018,09,19,02,04,7.50
2018,09,19,02,05,7.50
2018,09,19,02,06,7.50
2018,09,19,02,07,7.50
2018,09,19,02,08,7.50
2018,09,19,02,09,7.50
2018,09,19,02,10,7.40
2018,09,19,02,11,7.40
2018,09,19,02,12,7.40
2018,09,19,02,13,7.40
2018,09,19,02,14,7.40
2018,09,19,02,15,7.40
2018,09,19,02,16,7.40
2018,09,19,02,17,7.40
2018,09,19,02,18,7.40
2018,09,19,02,19,7.40
2018,09,19,02,20,7.40
2018,09,19,02,21,7.40
2018,09,19,02,22,7.40
2018,09,19,02,23,7.40
2018,09,19,02,24,7.40
2018,09,19,02,25,7.40
2018,09,19,02,26,7.40
2018,09,19,02,27,7.40
2018,09,19,02,28,7.40
2018,09,19,02,29,7.40
2018,09,19,02,30,7.40
2018,09,19,02,31,7.40
2018,09,19,02,32,7.40
2018,09,19,02,33,7.30
2018,09,19,02,34,7.30
2018,09,19,02,35,7.30
2018,09,19,02,36,7.30
2018,09,19,02,37,7.30
2018,09,19,02,38,7.30
2018,09,19,02,39,7.30
2018,09,19,02,40,7.30
2018,09,19,02,41,7.30
2018,09,19,02,42,7.30
2018,09,19,02,43,7.30
2018,09,19,02,44,7.30
2018,09,19,02,45,7.30
2018,09,19,02,46,7.30
2018,09,19,02,47,7.30
2018,09,19,02,48,7.30
2018,09,19,02,49,7.20
2018,09,19,02,50,7.20
2018,09,19,02,51,7.20
2018,09,19,02,52,7.20
2018,09,19,02,53,7.20
2018,09,19,02,54,7.20
2018,09,19,02,55,7.20
2018,09,19,02,56,7.20
2018,09,19,02,57,7.20
2018,09,19,02,58,7.20
2018,09,19,02,59,7.20
2018,09,19,03,00,7.20
2018,09,19,03,01,7.20
2018,09,19,03,02,7.20
2018,09,19,03,06,7.20
2018,09,19,03,07,7.20
2018,09,19,03,08,7.20
2018,09,19,03,09,7.10
2018,09,19,03,10,7.10
2018,09,19,03,11,7.10
2018,09,19,03,12,7.10
2018,09,19,03,13,7.10
2018,09,19,03,14,7.10
2018,09,19,03,15,7.10
2018,09,19,03,16,7.00
2018,09,19,03,17,7.00
2018,09,19,03,18,7.00
2018,09,19,03,19,7.00
2018,09,19,03,20,7.00
2018,09,19,03,21,7.00
2018,09,19,03,22,7.00
2018,09,19,03,23,7.00
2018,09,19,03,24,7.00
2018,09,19,03,25,7.00
2018,09,19,03,26,7.00
2018,09,19,03,27,7.00
2018,09,19,03,28,7.00
2018,09,19,03,29,7.00
2018,09,19,03,30,7.00
2018,09,19,03,31,7.00
2018,09,19,03,32,7.00
2018,09,19,03,33,7.00
2018,09,19,03,34,7.00
2018,09,19,03,35,7.00
2018,09,19,03,36,7.10
2018,09,19,03,37,7.10
2018,09,19,03,38,7.10
2018,09,19,03,39,7.10
2018,09,19,03,40,7.10
2018,09,19,03,41,7.10
2018,09,19,03,42,7.10
2018,09,19,03,43,7.10
2018,09,19,03,44,7.10
2018,09,19,03,45,7.10
2018,09,19,03,46,7.00
2018,09,19,03,47,7.00
2018,09,19,03,48,7.00
2018,09,19,03,49,7.00
2018,09,19,03,50,7.00
2018,09,19,03,51,6.90
2018,09,19,03,52,6.90
2018,09,19,03,53,6.90
2018,09,19,03,54,6.90
2018,09,19,03,55,6.90
2018,09,19,03,56,6.90
2018,09,19,03,57,6.90
2018,09,19,03,58,6.90
2018,09,19,03,59,6.90
2018,09,19,04,00,6.90
2018,09,19,04,01,6.90
2018,09,19,04,02,6.90
2018,09,19,04,03,6.90
2018,09,19,04,04,6.90
2018,09,19,04,05,6.90
2018,09,19,04,06,6.90
2018,09,19,04,07,6.90
2018,09,19,04,08,6.90
2018,09,19,04,09,6.90
2018,09,19,04,10,6.90
2018,09,19,04,11,6.90
2018,09,19,04,12,6.90
2018,09,19,04,13,6.90
2018,09,19,04,14,6.90
2018,09,19,04,15,6.90
2018,09,19,04,16,6.90
2018,09,19,04,17,6.90
2018,09,19,04,18,6.90
2018,09,19,04,19,6.90
2018,09,19,04,20,6.90
2018,09,19,04,21,6.90
2018,09,19,04,22,6.90
2018,09,19,04,23,6.90
2018,09,19,04,24,6.90
2018,09,19,04,25,6.90
2018,09,19,04,26,6.90
2018,09,19,04,27,6.90
2018,09,19,04,28,6.90
2018,09,19,04,29,6.90
2018,09,19,04,30,6.90
2018,09,19,04,31,6.90
2018,09,19,04,32,6.90
2018,09,19,04,33,6.80
2018,09,19,04,34,6.80
2018,09,19,04,35,6.80
2018,09,19,04,36,6.80
2018,09,19,04,37,6.80
2018,09,19,04,38,6.80
2018,09,19,04,39,6.80
2018,09,19,04,40,6.80
2018,09,19,04,41,6.80
2018,09,19,04,42,6.80
2018,09,19,04,43,6.80
2018,09,19,04,44,6.70
2018,09,19,04,45,6.70
2018,09,19,04,46,6.70
2018,09,19,04,47,6.70
2018,09,19,04,48,6.70
2018,09,19,04,49,6.70
2018,09,19,04,50,6.70
2018,09,19,04,51,6.70
2018,09,19,04,52,6.70
2018,09,19,04,53,6.70
2018,09,19,04,54,6.70
2018,09,19,04,55,6.70
2018,09,19,04,56,6.70
2018,09,19,04,57,6.70
2018,09,19,04,58,6.70
2018,09,19,04,59,6.70
2018,09,19,05,00,6.70
2018,09,19,05,01,6.70
2018,09,19,05,02,6.60
2018,09,19,05,03,6.60
2018,09,19,05,04,6.70
2018,09,19,05,05,6.70
2018,09,19,05,06,6.70
2018,09,19,05,07,6.70
2018,09,19,05,08,6.70
2018,09,19,05,09,6.70
2018,09,19,05,10,6.60
2018,09,19,05,11,6.60
2018,09,19,05,12,6.60
2018,09,19,05,13,6.60
2018,09,19,05,14,6.60
2018,09,19,05,15,6.60
2018,09,19,05,16,6.60
2018,09,19,05,17,6.60
2018,09,19,05,18,6.60
2018,09,19,05,19,6.60
2018,09,19,05,20,6.60
2018,09,19,05,21,6.60
2018,09,19,05,22,6.60
2018,09,19,05,23,6.60
2018,09,19,05,24,6.60
2018,09,19,05,25,6.60
2018,09,19,05,26,6.60
2018,09,19,05,27,6.60
2018,09,19,05,28,6.60
2018,09,19,05,29,6.60
2018,09,19,05,30,6.60
2018,09,19,05,31,6.60
2018,09,19,05,32,6.50
2018,09,19,05,33,6.50
2018,09,19,05,34,6.50
2018,09,19,05,35,6.50
2018,09,19,05,36,6.50
2018,09,19,05,37,6.50
2018,09,19,05,38,6.40
2018,09,19,05,39,6.40
2018,09,19,05,40,6.40
2018,09,19,05,41,6.40
2018,09,19,05,42,6.40
2018,09,19,05,43,6.40
2018,09,19,05,44,6.40
2018,09,19,05,45,6.40
2018,09,19,05,46,6.40
2018,09,19,05,47,6.40
2018,09,19,05,48,6.40
2018,09,19,05,49,6.40
2018,09,19,05,50,6.40
2018,09,19,05,51,6.40
2018,09,19,05,52,6.40
2018,09,19,05,53,6.40
2018,09,19,05,54,6.40
2018,09,19,05,55,6.40
2018,09,19,05,56,6.40
2018,09,19,05,57,6.40
2018,09,19,05,58,6.40
2018,09,19,05,59,6.40
2018,09,19,06,00,6.40
2018,09,19,06,01,6.40
2018,09,19,06,02,6.40
2018,09,19,06,03,6.40
2018,09,19,06,04,6.40
2018,09,19,06,05,6.40
2018,09,19,06,06,6.40
2018,09,19,06,07,6.40
2018,09,19,06,08,6.40
2018,09,19,06,09,6.40
2018,09,19,06,10,6.40
2018,09,19,06,11,6.30
2018,09,19,06,12,6.30
2018,09,19,06,13,6.30
2018,09,19,06,14,6.30
2018,09,19,06,15,6.30
2018,09,19,06,16,6.30
2018,09,19,06,17,6.30
2018,09,19,06,18,6.20
2018,09,19,06,19,6.20
2018,09,19,06,20,6.20
2018,09,19,06,21,6.20
2018,09,19,06,22,6.20
2018,09,19,06,23,6.20
2018,09,19,06,24,6.20
2018,09,19,06,25,6.20
2018,09,19,06,26,6.20
2018,09,19,06,27,6.20
2018,09,19,06,28,6.20
2018,09,19,06,29,6.20
2018,09,19,06,30,6.20
2018,09,19,06,31,6.10
2018,09,19,06,32,6.20
2018,09,19,06,33,6.20
2018,09,19,06,34,6.20
2018,09,19,06,35,6.20
2018,09,19,06,36,6.20
2018,09,19,06,37,6.20
2018,09,19,06,38,6.20
2018,09,19,06,39,6.20
2018,09,19,06,40,6.10
2018,09,19,06,41,6.10
2018,09,19,06,42,6.10
2018,09,19,06,43,6.10
2018,09,19,06,44,6.10
2018,09,19,06,45,6.10
2018,09,19,06,46,6.10
2018,09,19,06,47,6.10
2018,09,19,06,48,6.00
2018,09,19,06,49,6.00
2018,09,19,06,50,6.00
2018,09,19,06,51,6.00
2018,09,19,06,52,6.00
2018,09,19,06,53,6.00
2018,09,19,06,54,6.00
2018,09,19,06,55,6.00
2018,09,19,06,56,5.90
2018,09,19,06,57,5.90
2018,09,19,06,58,5.90
2018,09,19,06,59,5.90
2018,09,19,07,00,5.90
2018,09,19,07,01,5.90
2018,09,19,07,02,5.90
2018,09,19,07,03,5.90
2018,09,19,07,04,5.90
2018,09,19,07,05,5.90
2018,09,19,07,06,5.90
2018,09,19,07,07,5.90
2018,09,19,07,08,5.90
2018,09,19,07,09,5.90
2018,09,19,07,10,5.90
2018,09,19,07,11,5.90
2018,09,19,07,12,5.90
2018,09,19,07,13,5.90
2018,09,19,07,14,5.90
2018,09,19,07,15,5.80
2018,09,19,07,16,5.80
2018,09,19,07,17,5.80
2018,09,19,07,18,5.80
2018,09,19,07,19,5.80
2018,09,19,07,20,5.80
2018,09,19,07,21,5.80
2018,09,19,07,22,5.80
2018,09,19,07,23,5.80
2018,09,19,07,24,5.80
2018,09,19,07,25,5.80
2018,09,19,07,26,5.80
2018,09,19,07,27,5.80
2018,09,19,07,28,5.80
2018,09,19,07,29,5.80
2018,09,19,07,30,5.90
2018,09,19,07,31,5.90
2018,09,19,07,32,5.80
2018,09,19,07,33,5.90
2018,09,19,07,34,5.90
2018,09,19,07,35,5.90
2018,09,19,07,36,5.90
2018,09,19,07,37,5.90
2018,09,19,07,38,6.00
2018,09,19,07,39,6.00
2018,09,19,07,40,6.00
2018,09,19,07,41,6.00
2018,09,19,07,42,6.00
2018,09,19,07,43,6.00
2018,09,19,07,44,6.10
2018,09,19,07,45,6.10
2018,09,19,07,46,6.10
2018,09,19,07,47,6.10
2018,09,19,07,48,6.10
2018,09,19,07,49,6.10
2018,09,19,07,50,6.10
2018,09,19,07,51,6.20
2018,09,19,07,52,6.20
2018,09,19,07,53,6.20
2018,09,19,07,54,6.20
2018,09,19,07,55,6.30
2018,09,19,07,56,6.30
2018,09,19,07,57,6.30
2018,09,19,07,58,6.30
2018,09,19,07,59,6.40
2018,09,19,08,00,6.40
2018,09,19,08,01,6.50
2018,09,19,08,02,6.50
2018,09,19,08,03,6.60
2018,09,19,08,04,6.60
2018,09,19,08,05,6.70
2018,09,19,08,06,6.70
2018,09,19,08,07,6.80
2018,09,19,08,08,6.80
2018,09,19,08,09,6.80
2018,09,19,08,10,6.90
2018,09,19,08,11,6.90
2018,09,19,08,12,7.00
2018,09,19,08,13,7.00
2018,09,19,08,14,7.10
2018,09,19,08,15,7.10
2018,09,19,08,16,7.20
2018,09,19,08,17,7.20
2018,09,19,08,18,7.30
2018,09,19,08,19,7.30
2018,09,19,08,20,7.40
2018,09,19,08,21,7.40
2018,09,19,08,22,7.50
2018,09,19,08,23,7.60
2018,09,19,08,24,7.70
2018,09,19,08,25,7.80
2018,09,19,08,26,7.80
2018,09,19,08,27,7.90
2018,09,19,08,28,8.00
2018,09,19,08,29,8.00
2018,09,19,08,30,8.10
2018,09,19,08,31,8.20
2018,09,19,08,32,8.30
2018,09,19,08,33,8.40
2018,09,19,08,34,8.50
2018,09,19,08,35,8.60
2018,09,19,08,36,8.60
2018,09,19,08,37,8.70
2018,09,19,08,38,8.70
2018,09,19,08,39,8.80
2018,09,19,08,40,8.80
2018,09,19,08,41,8.80
2018,09,19,08,42,8.80
2018,09,19,08,43,8.90
2018,09,19,08,44,8.90
2018,09,19,08,45,9.00
2018,09,19,08,46,9.00
2018,09,19,08,47,9.10
2018,09,19,08,48,9.10
2018,09,19,08,49,9.10
2018,09,19,08,50,9.20
2018,09,19,08,51,9.20
2018,09,19,08,52,9.20
2018,09,19,08,53,9.30
2018,09,19,08,54,9.30
2018,09,19,08,55,9.40
2018,09,19,08,56,9.50
2018,09,19,08,57,9.50
2018,09,19,08,58,9.60
2018,09,19,08,59,9.70
2018,09,19,09,00,9.80
2018,09,19,09,01,9.90
2018,09,19,09,02,10.00
2018,09,19,09,03,10.00
2018,09,19,09,04,10.10
2018,09,19,09,05,10.20
2018,09,19,09,06,10.30
2018,09,19,09,07,10.40
2018,09,19,09,08,10.40
2018,09,19,09,09,10.50
2018,09,19,09,10,10.60
2018,09,19,09,11,10.70
2018,09,19,09,12,10.80
2018,09,19,09,13,10.90
2018,09,19,09,14,11.00
2018,09,19,09,15,11.00
2018,09,19,09,16,11.10
2018,09,19,09,17,11.10
2018,09,19,09,18,11.10
2018,09,19,09,19,11.10
2018,09,19,09,20,11.10
2018,09,19,09,21,11.20
2018,09,19,09,22,11.20
2018,09,19,09,23,11.20
2018,09,19,09,24,11.20
2018,09,19,09,25,11.20
2018,09,19,09,26,11.20
2018,09,19,09,27,11.20
2018,09,19,09,28,11.30
2018,09,19,09,29,11.30
2018,09,19,09,30,11.30
2018,09,19,09,31,11.30
2018,09,19,09,32,11.40
2018,09,19,09,33,11.50
2018,09,19,09,34,11.50
2018,09,19,09,35,11.60
2018,09,19,09,36,11.70
2018,09,19,09,37,11.70
2018,09,19,09,38,11.80
2018,09,19,09,39,11.90
2018,09,19,09,40,11.90
2018,09,19,09,41,12.00
2018,09,19,09,42,12.10
2018,09,19,09,43,12.10
2018,09,19,09,44,12.20
2018,09,19,09,45,12.30
2018,09,19,09,46,12.30
2018,09,19,09,47,12.30
2018,09,19,09,48,12.30
2018,09,19,09,49,12.40
2018,09,19,09,50,12.40
2018,09,19,09,51,12.40
2018,09,19,09,52,12.40
2018,09,19,09,53,12.50
2018,09,19,09,54,12.50
2018,09,19,09,55,12.50
2018,09,19,09,56,12.50
2018,09,19,09,57,12.50
2018,09,19,09,58,12.50
2018,09,19,09,59,12.60
2018,09,19,10,00,12.60
2018,09,19,10,01,12.70
2018,09,19,10,02,12.70
2018,09,19,10,03,12.70
2018,09,19,10,04,12.70
2018,09,19,10,05,12.70
2018,09,19,10,06,12.70
2018,09,19,10,07,12.80
2018,09,19,10,08,12.80
2018,09,19,10,09,12.80
2018,09,19,10,10,12.80
2018,09,19,10,11,12.80
2018,09,19,10,12,12.80
2018,09,19,10,13,12.80
2018,09,19,10,14,12.80
2018,09,19,10,15,12.80
2018,09,19,10,16,12.90
2018,09,19,10,17,12.90
2018,09,19,10,18,13.00
2018,09,19,10,19,13.10
2018,09,19,10,20,13.10
2018,09,19,10,21,13.20
2018,09,19,10,22,13.20
2018,09,19,10,23,13.30
2018,09,19,10,24,13.40
2018,09,19,10,25,13.40
2018,09,19,10,26,13.50
2018,09,19,10,27,13.60
2018,09,19,10,28,13.70
2018,09,19,10,29,13.70
2018,09,19,10,30,13.80
2018,09,19,10,31,13.80
2018,09,19,10,32,13.80
2018,09,19,10,33,13.80
2018,09,19,10,34,13.80
2018,09,19,10,35,13.80
2018,09,19,10,36,13.70
2018,09,19,10,37,13.70
2018,09,19,10,38,13.60
2018,09,19,10,39,13.60
2018,09,19,10,40,13.50
2018,09,19,10,41,13.50
2018,09,19,10,42,13.40
2018,09,19,10,43,13.40
2018,09,19,10,44,13.40
2018,09,19,10,45,13.30
2018,09,19,10,46,13.20
2018,09,19,10,47,13.10
2018,09,19,10,48,13.10
2018,09,19,10,49,13.00
2018,09,19,10,50,13.00
2018,09,19,10,51,13.00
2018,09,19,10,52,13.00
2018,09,19,10,53,13.00
2018,09,19,10,54,12.90
2018,09,19,10,55,12.90
2018,09,19,10,56,12.90
2018,09,19,10,57,12.90
2018,09,19,10,58,13.00
2018,09,19,10,59,13.00
2018,09,19,11,00,13.00
2018,09,19,11,01,13.00
2018,09,19,11,02,13.10
2018,09,19,11,03,13.10
2018,09,19,11,04,13.20
2018,09,19,11,05,13.20
2018,09,19,11,06,13.30
2018,09,19,11,07,13.30
2018,09,19,11,08,13.30
2018,09,19,11,09,13.30
2018,09,19,11,10,13.30
2018,09,19,11,11,13.30
2018,09,19,11,12,13.30
2018,09,19,11,13,13.30
2018,09,19,11,14,13.30
2018,09,19,11,15,13.30
2018,09,19,11,16,13.20
2018,09,19,11,17,13.20
2018,09,19,11,18,13.20
2018,09,19,11,19,13.20
2018,09,19,11,20,13.20
2018,09,19,11,21,13.10
2018,09,19,11,22,13.10
2018,09,19,11,23,13.10
2018,09,19,11,24,13.10
2018,09,19,11,25,13.10
2018,09,19,11,26,13.10
2018,09,19,11,27,13.10
2018,09,19,11,28,13.10
2018,09,19,11,29,13.10
2018,09,19,11,30,13.00
2018,09,19,11,31,13.10
2018,09,19,11,32,13.10
2018,09,19,11,33,13.10
2018,09,19,11,34,13.10
2018,09,19,11,35,13.10
2018,09,19,11,36,13.20
2018,09,19,11,37,13.20
2018,09,19,11,38,13.30
2018,09,19,11,39,13.30
2018,09,19,11,40,13.40
2018,09,19,11,41,13.50
2018,09,19,11,42,13.60
2018,09,19,11,43,13.60
2018,09,19,11,44,13.60
2018,09,19,11,45,13.70
2018,09,19,11,46,13.80
2018,09,19,11,47,13.90
2018,09,19,11,48,14.00
2018,09,19,11,49,14.00
2018,09,19,11,50,14.10
2018,09,19,11,51,14.10
2018,09,19,11,52,14.10
2018,09,19,11,53,14.10
2018,09,19,11,54,14.10
2018,09,19,11,55,14.00
2018,09,19,11,56,13.90
2018,09,19,11,57,13.90
2018,09,19,11,58,13.80
2018,09,19,11,59,13.80
2018,09,19,12,00,13.80
2018,09,19,12,01,13.80
2018,09,19,12,02,13.80
2018,09,19,12,03,13.80
2018,09,19,12,04,13.80
2018,09,19,12,05,13.80
2018,09,19,12,06,13.90
2018,09,19,12,07,13.90
2018,09,19,12,08,13.90
2018,09,19,12,09,14.00
2018,09,19,12,10,14.00
2018,09,19,12,11,14.00
2018,09,19,12,12,14.10
2018,09,19,12,13,14.10
2018,09,19,12,14,14.10
2018,09,19,12,15,14.10
2018,09,19,12,16,14.10
2018,09,19,12,17,14.10
2018,09,19,12,18,14.20
2018,09,19,12,19,14.20
2018,09,19,12,20,14.30
2018,09,19,12,21,14.40
2018,09,19,12,22,14.40
2018,09,19,12,23,14.40
2018,09,19,12,24,14.40
2018,09,19,12,25,14.40
2018,09,19,12,26,14.40
2018,09,19,12,27,14.30
2018,09,19,12,28,14.30
2018,09,19,12,29,14.30
2018,09,19,12,30,14.20
2018,09,19,12,31,14.20
2018,09,19,12,32,14.10
2018,09,19,12,33,14.10
2018,09,19,12,34,14.10
2018,09,19,12,35,14.10
2018,09,19,12,36,14.10
2018,09,19,12,37,14.20
2018,09,19,12,38,14.20
2018,09,19,12,39,14.10
2018,09,19,12,40,14.10
2018,09,19,12,41,14.10
2018,09,19,12,42,14.10
2018,09,19,12,43,14.00
2018,09,19,12,44,14.00
2018,09,19,12,45,13.90
2018,09,19,12,46,13.90
2018,09,19,12,47,13.90
2018,09,19,12,48,13.90
2018,09,19,12,49,13.90
2018,09,19,12,50,13.90
2018,09,19,12,51,13.90
2018,09,19,12,52,13.90
2018,09,19,12,53,13.80
2018,09,19,12,54,13.80
2018,09,19,12,55,13.80
2018,09,19,12,56,13.80
2018,09,19,12,57,13.80
2018,09,19,12,58,13.80
2018,09,19,12,59,13.80
2018,09,19,13,00,13.80
2018,09,19,13,01,13.90
2018,09,19,13,02,13.90
2018,09,19,13,03,13.90
2018,09,19,13,04,13.90
2018,09,19,13,05,13.90
2018,09,19,13,06,13.80
2018,09,19,13,07,13.80
2018,09,19,13,08,13.80
2018,09,19,13,09,13.80
2018,09,19,13,10,13.80
2018,09,19,13,11,13.80
2018,09,19,13,12,13.80
2018,09,19,13,13,13.80
2018,09,19,13,14,13.80
2018,09,19,13,15,13.90
2018,09,19,13,16,13.90
2018,09,19,13,17,14.00
2018,09,19,13,18,14.00
2018,09,19,13,19,14.10
2018,09,19,13,20,14.10
2018,09,19,13,21,14.10
2018,09,19,13,22,14.00
2018,09,19,13,23,14.00
2018,09,19,13,24,14.10
2018,09,19,13,25,14.10
2018,09,19,13,26,14.10
2018,09,19,13,27,14.20
2018,09,19,13,28,14.20
2018,09,19,13,29,14.20
2018,09,19,13,30,14.20
2018,09,19,13,31,14.20
2018,09,19,13,32,14.20
2018,09,19,13,33,14.30
2018,09,19,13,34,14.30
2018,09,19,13,35,14.30
2018,09,19,13,36,14.30
2018,09,19,13,37,14.40
2018,09,19,13,38,14.40
2018,09,19,13,39,14.40
2018,09,19,13,40,14.50
2018,09,19,13,41,14.50
2018,09,19,13,42,14.60
2018,09,19,13,43,14.60
2018,09,19,13,44,14.70
2018,09,19,13,45,14.80
2018,09,19,13,46,14.80
2018,09,19,13,47,14.80
2018,09,19,13,48,14.80
2018,09,19,13,49,14.80
2018,09,19,13,50,14.70
2018,09,19,13,51,14.70
2018,09,19,13,52,14.70
2018,09,19,13,53,14.60
2018,09,19,13,54,14.50
2018,09,19,13,55,14.50
2018,09,19,13,56,14.50
2018,09,19,13,57,14.50
2018,09,19,13,58,14.40
2018,09,19,13,59,14.40
2018,09,19,14,00,14.40
2018,09,19,14,01,14.30
2018,09,19,14,02,14.30
2018,09,19,14,03,14.30
2018,09,19,14,04,14.30
2018,09,19,14,05,14.30
2018,09,19,14,06,14.30
2018,09,19,14,07,14.30
2018,09,19,14,08,14.30
2018,09,19,14,09,14.30
2018,09,19,14,10,14.30
2018,09,19,14,11,14.20
2018,09,19,14,12,14.20
2018,09,19,14,13,14.30
2018,09,19,14,14,14.30
2018,09,19,14,15,14.30
2018,09,19,14,16,14.40
2018,09,19,14,17,14.40
2018,09,19,14,18,14.50
2018,09,19,14,19,14.50
2018,09,19,14,20,14.50
2018,09,19,14,21,14.50
2018,09,19,14,22,14.40
2018,09,19,14,23,14.40
2018,09,19,14,24,14.40
2018,09,19,14,25,14.30
2018,09,19,14,26,14.30
2018,09,19,14,27,14.20
2018,09,19,14,28,14.20
2018,09,19,14,29,14.10
2018,09,19,14,30,14.10
2018,09,19,14,31,14.10
2018,09,19,14,32,14.10
2018,09,19,14,33,14.10
2018,09,19,14,34,14.10
2018,09,19,14,35,14.10
2018,09,19,14,36,14.10
2018,09,19,14,37,14.00
2018,09,19,14,38,14.00
2018,09,19,14,39,14.00
2018,09,19,14,40,14.00
2018,09,19,14,41,14.10
2018,09,19,14,42,14.10
2018,09,19,14,43,14.20
2018,09,19,14,44,14.20
2018,09,19,14,45,14.20
2018,09,19,14,46,14.20
2018,09,19,14,47,14.30
2018,09,19,14,48,14.30
2018,09,19,14,49,14.20
2018,09,19,14,50,14.20
2018,09,19,14,51,14.20
2018,09,19,14,52,14.20
2018,09,19,14,53,14.20
2018,09,19,14,54,14.10
2018,09,19,14,55,14.10
2018,09,19,14,56,14.10
2018,09,19,14,57,14.00
2018,09,19,14,58,14.00
2018,09,19,14,59,14.00
2018,09,19,15,00,14.00
2018,09,19,15,01,14.00
2018,09,19,15,02,14.00
2018,09,19,15,03,14.00
2018,09,19,15,04,14.00
2018,09,19,15,05,14.00
2018,09,19,15,06,13.90
2018,09,19,15,07,13.90
2018,09,19,15,08,14.00
2018,09,19,15,09,14.00
2018,09,19,15,10,14.00
2018,09,19,15,11,14.10
2018,09,19,15,12,14.10
2018,09,19,15,13,14.10
2018,09,19,15,14,14.10
2018,09,19,15,15,14.10
2018,09,19,15,16,14.10
2018,09,19,15,17,14.10
2018,09,19,15,18,14.10
2018,09,19,15,19,14.10
2018,09,19,15,20,14.00
2018,09,19,15,21,14.00
2018,09,19,15,22,14.00
2018,09,19,15,23,14.00
2018,09,19,15,24,14.00
2018,09,19,15,25,14.00
2018,09,19,15,26,14.00
2018,09,19,15,27,14.00
2018,09,19,15,28,14.00
2018,09,19,15,29,13.90
2018,09,19,15,30,13.90
2018,09,19,15,31,13.90
2018,09,19,15,32,13.80
2018,09,19,15,33,13.80
2018,09,19,15,34,13.80
2018,09,19,15,35,13.80
2018,09,19,15,36,13.80
2018,09,19,15,37,13.80
2018,09,19,15,38,13.70
2018,09,19,15,39,13.70
2018,09,19,15,40,13.70
2018,09,19,15,41,13.70
2018,09,19,15,42,13.70
2018,09,19,15,43,13.70
2018,09,19,15,44,13.70
2018,09,19,15,45,13.70
2018,09,19,15,46,13.70
2018,09,19,15,47,13.70
2018,09,19,15,48,13.70
2018,09,19,15,49,13.70
2018,09,19,15,50,13.70
2018,09,19,15,51,13.70
2018,09,19,15,52,13.70
2018,09,19,15,53,13.70
2018,09,19,15,54,13.70
2018,09,19,15,55,13.70
2018,09,19,15,56,13.70
2018,09,19,15,57,13.70
2018,09,19,15,58,13.70
2018,09,19,15,59,13.70
2018,09,19,16,00,13.70
2018,09,19,16,01,13.70
2018,09,19,16,02,13.70
2018,09,19,16,03,13.70
2018,09,19,16,04,13.70
2018,09,19,16,05,13.70
2018,09,19,16,06,13.70
2018,09,19,16,07,13.70
2018,09,19,16,08,13.70
2018,09,19,16,09,13.70
2018,09,19,16,10,13.70
2018,09,19,16,11,13.70
2018,09,19,16,12,13.70
2018,09,19,16,13,13.70
2018,09,19,16,14,13.70
2018,09,19,16,15,13.70
2018,09,19,16,16,13.60
2018,09,19,16,17,13.70
2018,09,19,16,18,13.70
2018,09,19,16,19,13.70
2018,09,19,16,20,13.70
2018,09,19,16,21,13.70
2018,09,19,16,22,13.70
2018,09,19,16,23,13.70
2018,09,19,16,24,13.70
2018,09,19,16,25,13.70
2018,09,19,16,26,13.80
2018,09,19,16,27,13.80
2018,09,19,16,28,13.80
2018,09,19,16,29,13.80
2018,09,19,16,30,13.90
2018,09,19,16,31,13.90
2018,09,19,16,32,13.90
2018,09,19,16,33,13.90
2018,09,19,16,34,13.90
2018,09,19,16,35,13.90
2018,09,19,16,36,13.90
2018,09,19,16,37,13.90
2018,09,19,16,38,13.90
2018,09,19,16,39,13.90
2018,09,19,16,40,13.90
2018,09,19,16,41,13.90
2018,09,19,16,42,13.90
2018,09,19,16,43,13.90
2018,09,19,16,44,13.90
2018,09,19,16,45,13.90
2018,09,19,16,46,13.90
2018,09,19,16,47,14.00
2018,09,19,16,48,13.90
2018,09,19,16,49,13.90
2018,09,19,16,50,13.90
2018,09,19,16,51,14.00
2018,09,19,16,52,14.00
2018,09,19,16,53,14.00
2018,09,19,16,54,14.10
2018,09,19,16,55,14.10
2018,09,19,16,56,14.20
2018,09,19,16,57,14.20
2018,09,19,16,58,14.20
2018,09,19,16,59,14.30
2018,09,19,17,00,14.30
2018,09,19,17,01,14.30
2018,09,19,17,02,14.30
2018,09,19,17,03,14.30
2018,09,19,17,04,14.30
2018,09,19,17,05,14.30
2018,09,19,17,06,14.30
2018,09,19,17,07,14.30
2018,09,19,17,08,14.30
2018,09,19,17,09,14.30
2018,09,19,17,10,14.30
2018,09,19,17,11,14.30
2018,09,19,17,12,14.30
2018,09,19,17,13,14.30
2018,09,19,17,14,14.30
2018,09,19,17,15,14.30
2018,09,19,17,16,14.30
2018,09,19,17,17,14.30
2018,09,19,17,18,14.30
2018,09,19,17,19,14.30
2018,09,19,17,20,14.30
2018,09,19,17,21,14.20
2018,09,19,17,22,14.20
2018,09,19,17,23,14.20
2018,09,19,17,24,14.20
2018,09,19,17,25,14.20
2018,09,19,17,26,14.20
2018,09,19,17,27,14.20
2018,09,19,17,28,14.20
2018,09,19,17,29,14.20
2018,09,19,17,30,14.20
2018,09,19,17,31,14.20
2018,09,19,17,32,14.10
2018,09,19,17,33,14.10
2018,09,19,17,34,14.10
2018,09,19,17,35,14.10
2018,09,19,17,36,14.10
2018,09,19,17,37,14.10
2018,09,19,17,38,14.10
2018,09,19,17,39,14.10
2018,09,19,17,40,14.10
2018,09,19,17,41,14.10
2018,09,19,17,42,14.10
2018,09,19,17,43,14.10
2018,09,19,17,44,14.20
2018,09,19,17,45,14.20